THORAD AGENA D DEB, 4948

Orbit data source: Space-Track

THORAD AGENA D DEB, 4948 is space debris in SSO originally from a launch on Wed, 08 Apr 1970 UTC launched from the Air Force Western Test Range (AFWTR). Debris objects in space refer to the collection of defunct objects orbiting the Earth. Examples of debris include non-operational satellites, rocket bodies, and fragments generated from explosions, collisions, or faulty payload assembly.

Loading next visibility...
Identifier
4948, 1970-025GJ
Orbit
SSO
Country
Flag of USUS
Related business
Manufacturer
Unknown
Mission
Spacecraft
Bus & Motor
Unknown
Mass
Unknown
Launch date (UTC)
1970-04-08 (56 years ago)
Launch vehicle
Unknown
Launch site
Air Force Western Test Range (AFWTR)
Object type
Payload
Rocket body
Debris
Shape & HBR
Unknown shape, 0.1 m
Radar Cross Section
Small (<0.1 m²)

Expand to show TLE details & history
Last TLE update: 23 hours ago

TLE from 23 hours ago
0 THORAD AGENA D DEB
1 04948U 70025GJ  25341.09894323  .00001754  00000-0  23904-2 0  9999
2 04948  99.4157 193.2530 0206589 265.5073 263.1712 13.52080543712444
Epoch: 2025-12-07T02:22Z
TLE epoch observation values (Epoch: 2025-12-07T02:22:28.695Z)
Latitude
13.44419°
Longitude
-96.22352°
Altitude
1,088.078 km
Speed
7.299 km/s
True Right ascension
01h 02m 03s
True Declination
13° 22' 12"
Sunlit
Object was in full shadow at epoch
Visualization orbit readout
Latitude
Unknown
Longitude
Unknown
Altitude
Unknown
Speed
Unknown
Apparent Right ascension
Unknown
Apparent Declination
Unknown
Sunlit
N/A
Visualization observer readout
Local Sidereal Time
23:26:10
Azimuth
Unknown
Elevation
Unknown
Doppler factor
Unknown
Orbital elements
Apogee altitude
1,215.599 km
Perigee altitude
908.193 km
Semi-major axis
7,440.033 km
Eccentricity
0.02066
Inclination
99.4157°
RAAN
193.253°
Arg. of periapsis
265.5073°
True anomaly
260.82851°
Mean anomaly
263.1712°
Eccentric anomaly
261.99905°
Mean motion
3.38206 °/min
Orbital period
106.44 mins
BSTAR
0.0023904
Loading maneuver chart data...
Computing Atmospheric mass density...

Documentation

Showing up to 5 results
|